Time,TemperatureF,DewpointF,PressureIn,WindDirection,WindDirectionDegrees,WindSpeedMPH,WindSpeedGustMPH,Humidity,HourlyPrecipIn,Conditions,Clouds,dailyrainin,SoftwareType,DateUTC
2013-05-25 00:05:00,51.2,43.0,30.30,NE,44,0.0,0.0,74,0.00,,,0.00,weatherlink.com 1.10,2013-05-25 04:05:00,
2013-05-25 00:20:00,52.0,42.0,30.30,ENE,77,1.0,2.0,68,0.00,,,0.00,weatherlink.com 1.10,2013-05-25 04:20:00,
2013-05-25 00:35:00,51.3,41.0,30.31,North,351,1.0,3.0,69,0.00,,,0.00,weatherlink.com 1.10,2013-05-25 04:35:00,
2013-05-25 00:50:00,50.9,41.0,30.30,ENE,57,1.0,2.0,69,0.00,,,0.00,weatherlink.com 1.10,2013-05-25 04:50:00,
2013-05-25 01:05:00,50.4,41.0,30.31,NNW,328,0.0,2.0,70,0.00,,,0.00,weatherlink.com 1.10,2013-05-25 05:05:00,
2013-05-25 01:20:00,49.8,41.0,30.31,NNE,15,1.0,1.0,71,0.00,,,0.00,weatherlink.com 1.10,2013-05-25 05:20:00,
2013-05-25 01:35:00,51.1,40.0,30.31,NNW,337,0.0,3.0,67,0.00,,,0.00,weatherlink.com 1.10,2013-05-25 05:35:00,
2013-05-25 01:51:00,50.0,41.0,30.31,North,8,2.0,3.0,70,0.00,,,0.00,weatherlink.com 1.10,2013-05-25 05:51:00,
2013-05-25 02:06:00,50.0,41.0,30.32,NNW,345,3.0,4.0,70,0.00,,,0.00,weatherlink.com 1.10,2013-05-25 06:06:00,
2013-05-25 02:21:00,49.9,40.0,30.32,NNE,18,1.0,2.0,70,0.00,,,0.00,weatherlink.com 1.10,2013-05-25 06:21:00,
2013-05-25 02:36:00,49.9,40.0,30.32,NNE,23,1.0,6.0,68,0.00,,,0.00,weatherlink.com 1.10,2013-05-25 06:36:00,
2013-05-25 02:51:00,49.3,40.0,30.32,NNW,344,1.0,3.0,70,0.00,,,0.00,weatherlink.com 1.10,2013-05-25 06:51:00,
2013-05-25 03:06:00,48.5,40.0,30.32,North,358,1.0,3.0,72,0.00,,,0.00,weatherlink.com 1.10,2013-05-25 07:06:00,
2013-05-25 03:21:00,48.4,39.0,30.32,North,8,1.0,3.0,71,0.00,,,0.00,weatherlink.com 1.10,2013-05-25 07:21:00,
2013-05-25 03:36:00,47.7,39.0,30.30,NE,49,1.0,3.0,73,0.00,,,0.00,weatherlink.com 1.10,2013-05-25 07:36:00,
2013-05-25 03:51:00,47.7,39.0,30.30,NNE,29,1.0,4.0,73,0.00,,,0.00,weatherlink.com 1.10,2013-05-25 07:51:00,
2013-05-25 04:06:00,47.3,39.0,30.29,NE,47,1.0,4.0,74,0.00,,,0.00,weatherlink.com 1.10,2013-05-25 08:06:00,
2013-05-25 04:21:00,46.8,39.0,30.29,NE,50,1.0,4.0,75,0.00,,,0.00,weatherlink.com 1.10,2013-05-25 08:21:00,
2013-05-25 04:36:00,46.3,39.0,30.29,NE,36,2.0,4.0,76,0.00,,,0.00,weatherlink.com 1.10,2013-05-25 08:36:00,
2013-05-25 04:51:00,46.3,39.0,30.29,NNE,18,1.0,4.0,76,0.00,,,0.00,weatherlink.com 1.10,2013-05-25 08:51:00,
2013-05-25 05:06:00,46.1,39.0,30.30,ENE,60,4.0,4.0,77,0.00,,,0.00,weatherlink.com 1.10,2013-05-25 09:06:00,
2013-05-25 05:21:00,45.7,39.0,30.29,ENE,70,2.0,2.0,78,0.00,,,0.00,weatherlink.com 1.10,2013-05-25 09:21:00,
2013-05-25 05:36:00,45.5,39.0,30.28,ENE,72,3.0,3.0,79,0.00,,,0.00,weatherlink.com 1.10,2013-05-25 09:36:00,
2013-05-25 05:51:00,45.6,39.0,30.29,ENE,70,0.0,3.0,79,0.00,,,0.00,weatherlink.com 1.10,2013-05-25 09:51:00,
2013-05-25 06:06:00,45.7,40.0,30.29,East,84,1.0,2.0,79,0.00,,,0.00,weatherlink.com 1.10,2013-05-25 10:06:00,
2013-05-25 06:21:00,45.8,40.0,30.30,East,84,0.0,1.0,80,0.00,,,0.00,weatherlink.com 1.10,2013-05-25 10:21:00,
2013-05-25 06:36:00,46.2,40.0,30.31,East,97,1.0,1.0,79,0.00,,,0.00,weatherlink.com 1.10,2013-05-25 10:36:00,
2013-05-25 06:51:00,47.4,41.0,30.31,ENE,75,0.0,2.0,79,0.00,,,0.00,weatherlink.com 1.10,2013-05-25 10:51:00,
2013-05-25 07:06:00,48.2,41.0,30.31,East,79,1.0,2.0,76,0.00,,,0.00,weatherlink.com 1.10,2013-05-25 11:06:00,
2013-05-25 07:21:00,48.4,42.0,30.32,East,89,0.0,3.0,77,0.00,,,0.00,weatherlink.com 1.10,2013-05-25 11:21:00,
2013-05-25 07:36:00,49.0,42.0,30.32,East,90,3.0,4.0,76,0.00,,,0.00,weatherlink.com 1.10,2013-05-25 11:36:00,
2013-05-25 07:51:00,49.7,42.0,30.35,ESE,103,0.0,3.0,75,0.00,,,0.00,weatherlink.com 1.10,2013-05-25 11:51:00,
2013-05-25 08:06:00,50.1,42.0,30.34,East,84,2.0,3.0,74,0.00,,,0.00,weatherlink.com 1.10,2013-05-25 12:06:00,
2013-05-25 08:21:00,50.2,43.0,30.34,SSE,158,1.0,5.0,75,0.00,,,0.00,weatherlink.com 1.10,2013-05-25 12:21:00,
2013-05-25 08:36:00,51.1,43.0,30.36,SSE,162,0.0,3.0,74,0.00,,,0.00,weatherlink.com 1.10,2013-05-25 12:36:00,
2013-05-25 08:51:00,51.5,43.0,30.36,SSE,167,1.0,3.0,72,0.00,,,0.00,weatherlink.com 1.10,2013-05-25 12:51:00,
2013-05-25 09:06:00,52.0,44.0,30.36,South,172,2.0,4.0,73,0.00,,,0.00,weatherlink.com 1.10,2013-05-25 13:06:00,
2013-05-25 09:21:00,52.3,44.0,30.36,SSW,196,2.0,5.0,72,0.00,,,0.00,weatherlink.com 1.10,2013-05-25 13:21:00,
2013-05-25 09:36:00,52.9,43.0,30.37,South,184,0.0,1.0,70,0.00,,,0.00,weatherlink.com 1.10,2013-05-25 13:36:00,
2013-05-25 09:51:00,53.3,44.0,30.37,SE,135,3.0,3.0,70,0.00,,,0.00,weatherlink.com 1.10,2013-05-25 13:51:00,
2013-05-25 10:06:00,53.7,43.0,30.36,SSE,158,3.0,5.0,68,0.00,,,0.00,weatherlink.com 1.10,2013-05-25 14:06:00,
2013-05-25 10:22:00,54.0,44.0,30.35,ESE,113,6.0,6.0,68,0.00,,,0.00,weatherlink.com 1.10,2013-05-25 14:22:00,
2013-05-25 10:37:00,54.3,45.0,30.34,ESE,108,5.0,6.0,70,0.00,,,0.00,weatherlink.com 1.10,2013-05-25 14:37:00,
2013-05-25 10:52:00,55.0,45.0,30.35,ESE,105,3.0,8.0,69,0.00,,,0.00,weatherlink.com 1.10,2013-05-25 14:52:00,
2013-05-25 11:07:00,55.9,44.0,30.36,South,170,3.0,7.0,64,0.00,,,0.00,weatherlink.com 1.10,2013-05-25 15:07:00,
2013-05-25 11:22:00,56.4,44.0,30.36,SSE,162,5.0,8.0,63,0.00,,,0.00,weatherlink.com 1.10,2013-05-25 15:22:00,
2013-05-25 11:37:00,56.5,46.0,30.35,South,190,4.0,8.0,67,0.00,,,0.00,weatherlink.com 1.10,2013-05-25 15:37:00,
2013-05-25 11:52:00,57.1,45.0,30.34,South,179,7.0,9.0,64,0.00,,,0.00,weatherlink.com 1.10,2013-05-25 15:52:00,
2013-05-25 12:07:00,57.9,45.0,30.34,SSE,167,7.0,9.0,62,0.00,,,0.00,weatherlink.com 1.10,2013-05-25 16:07:00,
2013-05-25 12:22:00,58.9,45.0,30.33,SSW,200,6.0,9.0,61,0.00,,,0.00,weatherlink.com 1.10,2013-05-25 16:22:00,
2013-05-25 12:37:00,59.5,46.0,30.33,SW,225,5.0,9.0,61,0.00,,,0.00,weatherlink.com 1.10,2013-05-25 16:37:00,
2013-05-25 12:52:00,59.8,45.0,30.33,SW,232,4.0,8.0,58,0.00,,,0.00,weatherlink.com 1.10,2013-05-25 16:52:00,
2013-05-25 13:07:00,60.5,45.0,30.32,SW,229,5.0,8.0,56,0.00,,,0.00,weatherlink.com 1.10,2013-05-25 17:07:00,
2013-05-25 13:22:00,61.7,45.0,30.33,WNW,286,3.0,7.0,54,0.00,,,0.00,weatherlink.com 1.10,2013-05-25 17:22:00,
2013-05-25 13:37:00,61.2,43.0,30.32,SW,231,3.0,5.0,51,0.00,,,0.00,weatherlink.com 1.10,2013-05-25 17:37:00,
2013-05-25 13:52:00,61.5,40.0,30.32,WNW,284,3.0,5.0,46,0.00,,,0.00,weatherlink.com 1.10,2013-05-25 17:52:00,
2013-05-25 14:07:00,61.3,40.0,30.33,NW,307,2.0,5.0,46,0.00,,,0.00,weatherlink.com 1.10,2013-05-25 18:07:00,
2013-05-25 14:22:00,61.4,40.0,30.33,West,277,5.0,6.0,45,0.00,,,0.00,weatherlink.com 1.10,2013-05-25 18:22:00,
2013-05-25 14:37:00,61.3,40.0,30.32,WNW,298,4.0,7.0,46,0.00,,,0.00,weatherlink.com 1.10,2013-05-25 18:37:00,
2013-05-25 14:52:00,61.1,39.0,30.32,WNW,301,3.0,7.0,45,0.00,,,0.00,weatherlink.com 1.10,2013-05-25 18:52:00,
2013-05-25 15:07:00,61.4,39.0,30.32,WNW,290,3.0,6.0,44,0.00,,,0.00,weatherlink.com 1.10,2013-05-25 19:07:00,
2013-05-25 15:22:00,61.7,39.0,30.31,WNW,299,5.0,8.0,43,0.00,,,0.00,weatherlink.com 1.10,2013-05-25 19:22:00,
2013-05-25 15:37:00,61.5,37.0,30.31,WNW,303,2.0,7.0,40,0.00,,,0.00,weatherlink.com 1.10,2013-05-25 19:37:00,
2013-05-25 15:52:00,61.8,34.0,30.30,WNW,300,4.0,7.0,36,0.00,,,0.00,weatherlink.com 1.10,2013-05-25 19:52:00,
2013-05-25 16:07:00,62.8,35.0,30.29,WNW,294,3.0,7.0,36,0.00,,,0.00,weatherlink.com 1.10,2013-05-25 20:07:00,
2013-05-25 16:22:00,62.6,36.0,30.29,SSE,150,1.0,6.0,37,0.00,,,0.00,weatherlink.com 1.10,2013-05-25 20:22:00,
2013-05-25 16:37:00,63.1,33.0,30.28,NW,325,4.0,5.0,33,0.00,,,0.00,weatherlink.com 1.10,2013-05-25 20:37:00,
2013-05-25 16:52:00,62.7,32.0,30.27,North,351,2.0,5.0,32,0.00,,,0.00,weatherlink.com 1.10,2013-05-25 20:52:00,
2013-05-25 17:07:00,62.5,32.0,30.27,West,281,1.0,3.0,32,0.00,,,0.00,weatherlink.com 1.10,2013-05-25 21:07:00,
2013-05-25 17:22:00,62.1,32.0,30.26,West,276,0.0,2.0,32,0.00,,,0.00,weatherlink.com 1.10,2013-05-25 21:22:00,
2013-05-25 17:37:00,62.0,32.0,30.26,WNW,295,0.0,4.0,32,0.00,,,0.00,weatherlink.com 1.10,2013-05-25 21:37:00,
2013-05-25 17:52:00,61.9,32.0,30.26,WNW,300,1.0,2.0,33,0.00,,,0.00,weatherlink.com 1.10,2013-05-25 21:52:00,
2013-05-25 18:07:00,61.8,32.0,30.25,West,262,0.0,1.0,33,0.00,,,0.00,weatherlink.com 1.10,2013-05-25 22:07:00,
2013-05-25 18:23:00,61.8,34.0,30.23,East,82,2.0,2.0,36,0.00,,,0.00,weatherlink.com 1.10,2013-05-25 22:23:00,
2013-05-25 18:38:00,61.6,37.0,30.21,ESE,116,2.0,3.0,40,0.00,,,0.00,weatherlink.com 1.10,2013-05-25 22:38:00,
2013-05-25 18:53:00,61.3,35.0,30.21,ESE,120,3.0,5.0,37,0.00,,,0.00,weatherlink.com 1.10,2013-05-25 22:53:00,
2013-05-25 19:08:00,61.1,36.0,30.21,East,88,2.0,4.0,39,0.00,,,0.00,weatherlink.com 1.10,2013-05-25 23:08:00,
2013-05-25 19:23:00,61.0,36.0,30.22,East,95,1.0,3.0,39,0.00,,,0.00,weatherlink.com 1.10,2013-05-25 23:23:00,
2013-05-25 19:38:00,61.0,36.0,30.24,East,101,1.0,2.0,39,0.00,,,0.00,weatherlink.com 1.10,2013-05-25 23:38:00,
2013-05-25 19:53:00,61.1,38.0,30.25,NNW,336,2.0,3.0,43,0.00,,,0.00,weatherlink.com 1.10,2013-05-25 23:53:00,
2013-05-25 20:08:00,60.7,38.0,30.25,NNW,342,2.0,3.0,43,0.00,,,0.00,weatherlink.com 1.10,2013-05-26 00:08:00,
2013-05-25 20:23:00,60.4,39.0,30.25,North,359,2.0,3.0,45,0.00,,,0.00,weatherlink.com 1.10,2013-05-26 00:23:00,
2013-05-25 20:38:00,59.8,38.0,30.25,NNE,26,2.0,-999.0,44,-99.99,,,0.00,weatherlink.com 1.10,2013-05-26 00:38:00,
2013-05-25 20:53:00,59.6,39.0,30.25,NNE,21,1.0,4.0,46,0.00,,,0.00,weatherlink.com 1.10,2013-05-26 00:53:00,
2013-05-25 21:08:00,59.7,39.0,30.25,NW,326,2.0,4.0,46,0.00,,,0.00,weatherlink.com 1.10,2013-05-26 01:08:00,
2013-05-25 21:23:00,59.3,40.0,30.25,North,5,4.0,5.0,49,0.00,,,0.00,weatherlink.com 1.10,2013-05-26 01:23:00,
2013-05-25 21:38:00,58.6,44.0,30.26,North,351,2.0,4.0,58,0.00,,,0.00,weatherlink.com 1.10,2013-05-26 01:38:00,
2013-05-25 21:53:00,57.6,42.0,30.26,NNE,22,1.0,4.0,57,0.00,,,0.00,weatherlink.com 1.10,2013-05-26 01:53:00,
2013-05-25 22:08:00,56.9,44.0,30.26,North,1,0.0,1.0,62,0.00,,,0.00,weatherlink.com 1.10,2013-05-26 02:08:00,
2013-05-25 22:23:00,56.7,45.0,30.27,WNW,293,1.0,1.0,66,0.00,,,0.00,weatherlink.com 1.10,2013-05-26 02:23:00,
2013-05-25 22:38:00,56.0,47.0,30.27,WNW,293,1.0,1.0,71,0.00,,,0.00,weatherlink.com 1.10,2013-05-26 02:38:00,
2013-05-25 22:53:00,55.1,45.0,30.27,West,259,1.0,2.0,70,0.00,,,0.00,weatherlink.com 1.10,2013-05-26 02:53:00,
2013-05-25 23:08:00,55.4,45.0,30.28,West,267,0.0,1.0,67,0.00,,,0.00,weatherlink.com 1.10,2013-05-26 03:08:00,
2013-05-25 23:23:00,55.3,44.0,30.28,NE,37,0.0,1.0,65,0.00,,,0.00,weatherlink.com 1.10,2013-05-26 03:23:00,
2013-05-25 23:38:00,55.5,45.0,30.28,North,356,1.0,1.0,67,0.00,,,0.00,weatherlink.com 1.10,2013-05-26 03:38:00,
2013-05-25 23:53:00,55.0,43.0,30.27,North,355,1.0,1.0,65,0.00,,,0.00,weatherlink.com 1.10,2013-05-26 03:53:00,